DateTimeUTC,F1_A11,F1_S11,BsB_S11,BsG_S11,BsR_S11,BbsB_S11,BbsG_S11,BbsR_S11,BaB_A11,BaG_A11,BaR_A11,Tu_S11,T_S11,Uu_S11,U_S11,P_S11,T1_A11
2021-05-05T10:00:00Z,00000200,21000000,,,,,,,-000.42,-000.38,-000.20,15.4,22.4,,00.0,0675.5,30.8
2021-05-05T10:01:00Z,00000200,21000000,,,,,,,0000.17,0000.15,0000.35,15.4,22.4,,00.0,0675.5,30.8
2021-05-05T10:02:00Z,00000200,21000000,,,,,,,-000.06,0000.04,-000.24,15.3,22.4,,00.0,0675.5,30.8
2021-05-05T10:03:00Z,00000200,61000000,,,,,,,0001.71,0001.01,0000.87,15.3,22.4,,00.0,0675.5,30.8
2021-05-05T10:04:00Z,00000200,41000000,0006.84,0004.72,0002.81,0000.91,0000.66,0000.77,0002.10,0002.17,0001.83,15.3,22.1,,00.0,0676.5,30.8
2021-05-05T10:05:00Z,00000200,01000000,0007.33,0004.69,0003.01,0001.29,0000.73,0000.73,0002.08,0001.45,0000.92,15.3,22.1,,00.0,0676.6,30.8
2021-05-05T10:06:00Z,00000200,01000000,0007.17,0004.70,0003.08,0001.42,0000.75,0000.73,0001.27,0001.86,0001.07,15.2,22.0,,00.0,0676.6,30.8
2021-05-05T10:07:00Z,00000200,01000000,0007.10,0004.51,0002.84,0000.62,0000.85,0000.74,0002.42,0000.86,0001.16,15.2,22.0,,00.0,0676.5,30.8
2021-05-05T10:08:00Z,00000200,01000000,0007.09,0004.33,0003.00,0001.05,0000.55,0000.81,0001.52,0001.90,0001.35,15.2,22.0,,00.0,0676.5,30.8
2021-05-05T10:09:00Z,00000200,01000000,0007.50,0004.56,0002.70,0001.19,0000.64,0000.56,0002.34,0001.89,0001.44,15.3,22.0,,00.0,0676.5,30.8
2021-05-05T10:10:00Z,00000200,01000000,0007.12,0004.17,0002.96,0001.14,0000.72,0000.48,0002.05,0002.21,0001.51,15.4,22.1,,00.0,0676.5,30.8
2021-05-05T10:11:00Z,00000200,01000000,0006.94,0004.53,0002.72,0000.69,0000.53,0000.44,0001.31,0001.61,0000.78,15.5,22.1,,00.0,0676.5,30.8
2021-05-05T10:12:00Z,00000200,01000000,0007.45,0005.01,0002.67,0000.24,0000.58,0000.80,0002.11,0001.58,0001.55,15.5,22.1,,00.0,0676.5,30.8
2021-05-05T10:13:00Z,00000200,01000000,0007.65,0004.44,0002.62,0001.37,0000.55,0000.49,0002.04,0001.77,0001.47,15.5,22.1,,00.0,0676.5,30.8
2021-05-05T10:14:00Z,00000200,01000000,0006.88,0004.40,0002.95,0001.16,0000.47,0000.61,0001.48,0001.60,0001.10,15.5,22.1,,00.0,0676.5,30.8
2021-05-05T10:15:00Z,00000200,01000000,0006.35,0004.44,0002.70,0000.79,0000.69,0000.55,0002.27,0001.67,0000.91,15.5,22.1,,00.0,0676.5,30.8
2021-05-05T10:16:00Z,00000200,01000000,0007.40,0004.06,0002.43,0000.76,0000.58,0000.59,0001.88,0002.01,0001.52,15.4,22.1,,00.0,0676.5,30.8
2021-05-05T10:17:00Z,00000200,01000000,0007.11,0004.64,0002.61,0001.15,0000.62,0000.45,0001.79,0001.63,0001.37,15.4,22.0,,00.0,0676.5,30.8
2021-05-05T10:18:00Z,00000200,01000000,0007.15,0004.20,0002.76,0001.37,0000.52,0000.68,0002.23,0001.31,0001.20,15.4,22.0,,00.0,0676.5,30.8
2021-05-05T10:19:00Z,00000200,01000000,0007.62,0004.44,0002.71,0000.52,0000.60,0000.40,0001.44,0001.89,0001.46,15.3,22.0,,00.0,0676.5,30.8
2021-05-05T10:20:00Z,00000200,01000000,0007.61,0004.53,0002.65,0001.03,0000.72,0000.48,0001.77,0001.38,0000.83,15.3,22.0,,00.0,0676.5,30.8
2021-05-05T10:21:00Z,00000200,01000000,0007.11,0004.24,0002.54,0000.84,0000.71,0000.52,0002.07,0001.99,0001.23,15.3,22.0,,00.0,0676.4,30.8
2021-05-05T10:22:00Z,00000200,01000000,0006.73,0004.10,0002.63,0000.96,0000.77,0000.55,0001.70,0001.39,0001.07,15.2,21.9,,00.0,0676.5,30.8
2021-05-05T10:23:00Z,00000200,01000000,0006.42,0004.00,0002.52,0000.58,0000.70,0000.44,0001.59,0001.30,0000.95,15.3,21.9,,00.0,0676.4,30.8
2021-05-05T10:24:00Z,00000200,01000000,0006.20,0004.00,0002.70,0000.87,0000.65,0000.49,0001.80,0001.55,0001.35,15.3,22.0,,00.0,0676.4,30.8
2021-05-05T10:25:00Z,00000200,01000000,0006.31,0004.13,0002.35,0000.77,0000.62,0000.42,0001.64,0001.61,0001.22,15.4,22.0,,00.0,0676.4,30.8
2021-05-05T10:26:00Z,00000200,01000000,0006.65,0004.39,0002.56,0001.36,0000.87,0000.71,0001.50,0001.02,0000.17,15.4,22.0,,00.0,0676.4,30.8
2021-05-05T10:27:00Z,00000200,01000000,0006.43,0004.52,0002.49,0001.12,0000.55,0000.50,0001.80,0002.11,0001.61,15.5,22.0,,00.0,0676.4,30.8
2021-05-05T10:28:00Z,00000200,01000000,0006.65,0003.98,0002.77,0001.06,0000.63,0000.44,0001.84,0001.41,0001.40,15.5,22.0,,00.0,0676.4,30.8
2021-05-05T10:29:00Z,00000200,01000000,0006.22,0004.12,0002.85,0000.45,0000.79,0000.57,0001.26,0001.20,0001.03,15.4,22.0,,00.0,0676.4,30.8
2021-05-05T10:30:00Z,00000200,01000000,0006.53,0003.79,0002.17,0001.30,0000.67,0000.31,0001.28,0001.73,0001.18,15.4,22.0,,00.0,0676.4,30.8
2021-05-05T10:31:00Z,00000200,01000000,0006.72,0004.14,0002.53,0001.05,0000.66,0000.54,0002.18,0001.49,0000.65,15.4,22.0,,00.0,0676.4,30.8
2021-05-05T10:32:00Z,00000200,01000000,0005.55,0004.38,0002.57,0001.03,0000.76,0000.60,0001.48,0001.11,0001.04,15.4,21.9,,00.0,0676.4,30.8
2021-05-05T10:33:00Z,00000200,01000000,0006.51,0003.70,0002.41,0001.04,0000.52,0000.55,0001.34,0001.17,0001.04,15.3,21.9,,00.0,0676.4,30.8
2021-05-05T10:34:00Z,00000200,01000000,0006.18,0004.20,0002.44,0000.50,0000.65,0000.53,0001.22,0001.64,0001.13,15.3,21.9,,00.0,0676.4,30.8
2021-05-05T10:35:00Z,00000200,01000000,0006.19,0003.75,0002.57,0001.04,0000.68,0000.46,0001.55,0001.07,0001.09,15.3,21.9,,00.0,0676.4,30.8
2021-05-05T10:36:00Z,00000200,01000000,0006.23,0003.96,0002.51,0001.48,0000.65,0000.43,0001.50,0001.23,0000.77,15.2,21.9,,00.0,0676.4,30.8
2021-05-05T10:37:00Z,00000200,01000000,0006.75,0003.95,0002.06,0001.74,0000.69,0000.45,0001.72,0001.25,0001.24,15.2,21.9,,00.0,0676.4,30.8
2021-05-05T10:38:00Z,00000200,01000000,0006.30,0003.93,0002.33,0000.87,0000.38,0000.75,0001.35,0001.52,0000.69,15.2,21.8,,00.0,0676.4,30.8
2021-05-05T10:39:00Z,00000200,01000000,0006.23,0003.80,0002.50,0001.10,0000.45,0000.59,0001.74,0001.48,0001.16,15.3,21.9,,00.0,0676.4,30.8
2021-05-05T10:40:00Z,00000200,01000000,0006.03,0003.97,0002.55,0000.92,0000.62,0000.56,0001.69,0001.53,0001.05,15.4,21.9,,00.0,0676.3,30.8
2021-05-05T10:41:00Z,00000200,01000000,0005.84,0003.81,0002.56,0000.87,0000.79,0000.39,0001.42,0001.27,0001.00,15.5,22.0,,00.0,0676.3,30.8
2021-05-05T10:42:00Z,00000200,01000000,0006.59,0003.84,0002.37,0001.19,0000.73,0000.27,0001.51,0001.52,0000.89,15.5,22.0,,00.0,0676.3,30.8
2021-05-05T10:43:00Z,00000200,01000000,0006.71,0003.65,0002.55,0001.27,0000.57,0000.60,0001.49,0001.10,0001.22,15.5,22.0,,00.0,0676.3,30.8
2021-05-05T10:44:00Z,00000200,01000000,0006.32,0003.90,0002.26,0000.95,0000.69,0000.56,0001.51,0001.22,0000.90,15.5,22.0,,00.0,0676.4,30.8
2021-05-05T10:45:00Z,00000200,01000000,0005.43,0003.84,0002.41,0000.77,0000.50,0000.38,0001.39,0001.26,0000.88,15.5,22.0,,00.0,0676.4,30.8
2021-05-05T10:46:00Z,00000200,01000000,0006.07,0003.91,0002.41,0001.41,0000.71,0000.50,0001.70,0001.32,0001.34,15.4,21.9,,00.0,0676.4,30.8
2021-05-05T10:47:00Z,00000200,01000000,0006.03,0004.09,0002.61,0001.33,0000.48,0000.61,0001.31,0001.46,0000.60,15.4,21.9,,00.0,0676.4,30.8
2021-05-05T10:48:00Z,00000200,01000000,0006.19,0003.90,0002.57,0000.91,0000.83,0000.43,0001.31,0001.42,0001.20,15.3,21.9,,00.0,0676.4,30.8
2021-05-05T10:49:00Z,00000200,01000000,0005.81,0003.96,0002.16,0001.07,0000.78,0000.18,0001.95,0001.31,0000.92,15.3,21.9,,00.0,0676.4,30.8
2021-05-05T10:50:00Z,00000200,01000000,0006.14,0004.10,0002.45,0001.13,0000.68,0000.62,0001.34,0001.56,0000.99,15.3,21.9,,00.0,0676.4,30.8
2021-05-05T10:51:00Z,00000200,01000000,0005.97,0003.72,0002.39,0001.22,0000.67,0000.29,0001.84,0001.36,0000.89,15.2,21.9,,00.0,0676.4,30.8
2021-05-05T10:52:00Z,00000200,01000000,0006.27,0003.58,0002.83,0000.59,0000.51,0000.20,0001.43,0001.14,0001.29,15.2,21.8,,00.0,0676.4,30.8
2021-05-05T10:53:00Z,00000200,01000000,0006.44,0003.69,0002.21,0000.84,0000.79,0000.49,0001.63,0001.57,0000.93,15.2,21.8,,00.0,0676.4,30.8
2021-05-05T10:54:00Z,00000200,01000000,0006.00,0003.98,0002.42,0000.88,0000.69,0000.44,0001.71,0001.42,0001.22,15.3,21.8,,00.0,0676.4,30.8
2021-05-05T10:55:00Z,00000200,01000000,0006.39,0003.84,0002.65,0000.69,0000.77,0000.27,0001.53,0001.58,0001.04,15.4,21.9,,00.0,0676.4,30.8
2021-05-05T10:56:00Z,00000200,01000000,0006.34,0003.89,0002.37,0000.70,0000.81,0000.49,0001.20,0001.04,0000.70,15.4,21.9,,00.0,0676.4,30.8
2021-05-05T10:57:00Z,00000200,41000000,,,,,,,0001.05,0000.95,0000.69,15.5,22.0,,00.0,0676.4,30.8
2021-05-05T10:58:00Z,00000200,61000000,,,,,,,-000.40,-000.22,-000.29,15.3,22.1,,00.0,0675.4,30.8
2021-05-05T10:59:00Z,00000200,21000000,,,,,,,-000.30,-000.34,0000.04,15.2,22.2,,00.0,0675.4,30.8
